Home   Weather   Karaganda   Past weeks

Flag for Kazakhstan Past Weather in Karaganda, Kazakhstan — Yesterday and Last 2 Weeks

Now
28 °F

Partly sunny.


Feels Like: 13 °F
Forecast: 17 / 27 °F
Wind: 29 mph from Southwest

Location: Karaganda

Current Time: Dec 4, 2016 at 6:32:14 pm

Latest Report: Dec 4, 2016 at 6:00 pm


Visibility: N/A

Pressure: 29.92 "Hg (27.90 "Hg at 555m altitude)

Humidity: 93%

Dew Point: 27 °F

Location of KaragandaLocation

Past Weather in Karaganda — Graph

°F

Karaganda Temperature Yesterday

Maximum temperature yesterday: 36 °F (at 7:30 pm)
Minimum temperature yesterday: 10 °F (at 6:30 am)
Average temperature yesterday: 22 °F

High & Low Weather Summary for the Past Weeks

 TemperatureHumidityPressure
High37 °F (Dec 4, 6:00 am)100% (Dec 2, 10:00 am)30.92 "Hg (Dec 2, 10:00 am)
Low-33 °F (Nov 20, 8:00 am)54% (Nov 30, 11:30 am)29.71 "Hg (Dec 4, 12:00 am)
Average9 °F77%30.34 "Hg
* Reported Nov 19 5:00 pm — Dec 4 5:30 pm, Karaganda, Weather by CustomWeather, © 2016

Note: Actual official high and low records may vary slightly from our data, if they occured in-between our weather recording intervals... More about our weather records

Advertising

Karaganda Weather History for the Previous 24 Hours

Scroll right to see more
 ConditionsComfort  
Time TempWeatherWind HumidityBarometerVisibility
5:30 pm
Sun, Dec 4
30 °FPartly sunny.26 mph86%29.92 "HgN/A
5:00 pm28 °FPartly sunny.29 mph93%29.89 "HgN/A
4:30 pm30 °FLight snow. Partly sunny.33 mph86%29.89 "HgN/A
4:00 pm30 °FLight snow. Mostly cloudy.29 mph86%29.89 "Hg5 mi
3:30 pm30 °FPartly sunny.33 mph86%29.86 "HgN/A
3:00 pm30 °FBroken clouds.26 mph86%29.86 "HgN/A
2:30 pm32 °FPartly sunny.33 mph80%29.86 "HgN/A
2:00 pm32 °FPartly sunny.38 mph80%29.83 "HgN/A
1:30 pm32 °FSnow flurries. Partly sunny.29 mph93%29.80 "Hg4 mi
1:00 pm34 °FPartly sunny.33 mph87%29.80 "HgN/A
12:30 pm34 °FMostly cloudy.31 mph93%29.77 "HgN/A
12:00 pm36 °FMostly cloudy.24 mph93%29.77 "HgN/A
11:30 am36 °FLight rain. Mostly cloudy.26 mph93%29.77 "HgN/A
11:00 am36 °FLight rain. Mostly cloudy.24 mph93%29.74 "Hg3 mi
10:30 am36 °FMostly cloudy.24 mph93%29.74 "HgN/A
10:00 am36 °FMostly cloudy.24 mph93%29.74 "HgN/A
9:30 am36 °FMostly cloudy.24 mph93%29.74 "HgN/A
9:00 am36 °FSprinkles. Mostly cloudy.24 mph100%29.71 "Hg5 mi
8:30 am36 °FSprinkles. Fog.26 mph100%29.71 "Hg3 mi
8:00 am36 °FLight rain. Fog.22 mph93%29.71 "Hg3 mi
7:30 am36 °FDrizzle. Overcast.17 mph93%29.74 "HgN/A
7:00 am37 °FDrizzle. Overcast.24 mph87%29.74 "HgN/A
6:30 am37 °FMostly cloudy.22 mph87%29.71 "HgN/A
6:00 am37 °FOvercast.22 mph87%29.71 "HgN/A
5:00 am34 °FOvercast.22 mph87%29.74 "HgN/A
4:30 am34 °FOvercast.24 mph81%29.71 "HgN/A
4:00 am32 °FOvercast.26 mph87%29.74 "HgN/A
3:30 am32 °FPassing clouds.29 mph80%29.74 "HgN/A
3:00 am32 °FPassing clouds.29 mph80%29.74 "HgN/A
2:30 am30 °FPassing clouds.31 mph80%29.74 "HgN/A
2:00 am28 °FPassing clouds.31 mph86%29.74 "HgN/A
1:30 am30 °FLight snow. Passing clouds.36 mph80%29.74 "HgN/A
1:00 am30 °FClear.38 mph80%29.71 "Hg10 mi
12:30 am30 °FClear.38 mph80%29.71 "Hg10 mi
12:00 am30 °FLight snow. Passing clouds.38 mph80%29.71 "HgN/A
11:30 pm
Sat, Dec 3
30 °FClear.31 mph80%29.74 "Hg10 mi
11:00 pm30 °FClear.36 mph86%29.74 "Hg10 mi
10:30 pm32 °FClear.36 mph80%29.77 "Hg10 mi
10:00 pm34 °FClear.29 mph81%29.77 "Hg10 mi
9:30 pm34 °FClear.36 mph81%29.77 "Hg10 mi
9:00 pm36 °FClear.31 mph81%29.80 "Hg10 mi
8:30 pm36 °FClear.24 mph81%29.80 "Hg10 mi
8:00 pm36 °FPassing clouds.26 mph87%29.80 "HgN/A
7:30 pm36 °FPassing clouds.24 mph87%29.80 "HgN/A
7:00 pm34 °FPassing clouds.13 mph87%29.86 "HgN/A
6:30 pm34 °FLight rain. Passing clouds.15 mph87%29.86 "HgN/A
6:00 pm34 °FLight rain. Partly sunny.8 mph87%29.89 "HgN/A
Weather by CustomWeather, © 2016

See weather overviewHow to use our weather pages